FENGYUN 1C DEB, 30076

Orbit data source: Space-Track

FENGYUN 1C DEB, 30076 is space debris in SSO originally from a launch on Mon, 10 May 1999 UTC launched from the Taiyaun Space Center, China (TSC). Fengyun 1C debris stems from the Chinese weather satellite Fengyun-1C, which was intentionally destroyed by a Chinese anti-satellite missile in 2007. This event dramatically increased the amount of space debris, with thousands of trackable fragments posing hazards to satellites and human spaceflight. The Fengyun 1C debris cloud has become a focal point in discussions about space sustainability and the need for international regulations to prevent the creation of new debris.

Loading next visibility...
Identifier
30076, 1999-025QD
Orbit
SSO
Country
Flag of CNCN / PRC
Related business
Manufacturer
Unknown
Mission
Spacecraft
Bus & Motor
Unknown
Mass
Unknown
Launch date (UTC)
1999-05-10 (27 years ago)
Launch vehicle
Unknown
Launch site
Taiyaun Space Center, China (TSC)
Object type
Payload
Rocket body
Debris
Shape & HBR
Unknown shape, 0.1 m
Radar Cross Section
Small (<0.1 m²)

Expand to show TLE details & history
Last TLE update: 15 hours ago

TLE from 15 hours ago
0 FENGYUN 1C DEB
1 30076U 99025QD  26070.94899868  .00000252  00000-0  27134-3 0  9996
2 30076  99.2490  60.1084 0174139 218.5150 198.8783 13.76366652961215
Epoch: 2026-03-11T22:46Z
TLE epoch observation values (Epoch: 2026-03-11T22:46:33.485Z)
Latitude
55.73717°
Longitude
-104.89567°
Altitude
1,107.444 km
Speed
7.243 km/s
True Right ascension
03h 05m 23s
True Declination
55° 35' 04"
Sunlit
Object was in daylight at epoch
Visualization orbit readout
Latitude
Unknown
Longitude
Unknown
Altitude
Unknown
Speed
Unknown
Apparent Right ascension
Unknown
Apparent Declination
Unknown
Sunlit
N/A
Visualization observer readout
Local Sidereal Time
18:36:25
Azimuth
Unknown
Elevation
Unknown
Doppler factor
Unknown
Orbital elements
Apogee altitude
1,102.074 km
Perigee altitude
846.014 km
Semi-major axis
7,352.181 km
Eccentricity
0.01741
Inclination
99.249°
RAAN
60.1084°
Arg. of periapsis
218.515°
True anomaly
198.2457°
Mean anomaly
198.8783°
Eccentric anomaly
198.56071°
Mean motion
3.44286 °/min
Orbital period
104.56 mins
BSTAR
0.00027134
Loading maneuver chart data...
Computing Atmospheric mass density...
Loading historical data...
Loading historical data...
Loading historical data...
Loading historical data...
Loading historical data...
Loading historical data...
Loading historical data...

Documentation

Showing up to 5 results
|